EW1979 Weather Reports


Display with metric or nautical units.
time (UTC)temp
F
wind
direction
speed
MPH
gust
MPH
rain 1hr
in
rain 24hr
in
rain mn
in
humidity
%
barometer
mb
20260905131504 74 168 3.0 0.0 0.00 0.00 0.00 91 1010.6
20260905130104 74 200 3.0 0.0 0.00 0.00 0.00 92 1010.5
20260905124510 73 167 3.0 0.0 0.00 0.00 0.00 92 1010.3
20260905123110 73 140 3.0 0.0 0.00 0.00 0.00 93 1010.2
20260905121510 73 151 3.0 0.0 0.00 0.00 0.00 92 1010.1
20260905120103 73 136 3.0 0.0 0.00 0.00 0.00 92 1010.2
20260905113007 73 145 3.0 0.0 0.00 0.00 0.00 92 1009.7
20260905111607 73 154 3.0 0.0 0.00 0.00 0.00 92 1009.6
20260905110105 73 193 3.0 0.0 0.00 0.00 0.00 92 1009.4
20260905104506 74 159 3.0 0.0 0.00 0.00 0.00 92 1009.2
20260905103103 74 165 3.0 0.0 0.00 0.00 0.00 92 1009.4
20260905101608 73 161 3.0 0.0 0.00 0.00 0.00 92 1009.4
20260905100117 74 171 2.0 0.0 0.00 0.00 0.00 91 1009.3
20260905093103 74 155 3.0 0.0 0.00 0.00 0.00 91 1009.3
20260905091603 74 160 3.0 0.0 0.00 0.00 0.00 91 1009.4
20260905084503 74 146 2.0 0.0 0.00 0.00 0.00 90 1009.3
20260905083007 74 138 3.0 0.0 0.00 0.00 0.00 89 1009.4
20260905081603 74 128 3.0 0.0 0.00 0.00 0.00 88 1009.4
20260905080104 74 169 3.0 0.0 0.00 0.00 0.00 88 1009.4
20260905074606 75 159 3.0 0.0 0.00 0.00 0.00 87 1009.6
20260905073012 75 163 4.0 0.0 0.00 0.00 0.00 86 1009.8
20260905071618 75 171 4.0 0.0 0.00 0.00 0.00 85 1009.8
20260905070105 75 173 4.0 0.0 0.00 0.00 0.00 83 1009.8
20260905064604 76 176 3.0 0.0 0.00 0.00 0.00 81 1009.8
20260905063105 76 167 2.0 0.0 0.00 0.00 0.00 78 1009.8
20260905061517 76 155 3.0 0.0 0.00 0.00 0.00 77 1009.9
20260905060004 76 175 3.0 0.0 0.00 0.00 0.00 75 1010.0
20260905054608 77 146 2.0 0.0 0.00 0.00 0.00 74 1009.9
20260905051509 77 150 4.0 0.0 0.00 0.00 0.00 72 1009.9
20260905050105 77 142 3.0 0.0 0.00 0.00 0.00 72 1009.9
20260905044503 78 150 3.0 0.0 0.00 0.00 0.00 72 1009.9
20260905043104 78 119 2.0 0.0 0.00 0.00 0.00 73 1009.9
20260905041504 78 115 1.0 0.0 0.00 0.00 0.00 72 1010.0
20260905040006 78 126 2.0 0.0 0.00 0.00 0.00 72 1009.9
20260905034503 78 95 2.0 0.0 0.00 0.00 0.00 72 1010.0
20260905033006 78 140 2.0 0.0 0.00 0.00 0.00 72 1009.9
20260905031616 78 78 2.0 0.0 0.00 0.00 0.00 71 1009.7
20260905030011 79 78 3.0 0.0 0.00 0.00 0.00 69 1009.9
20260905023105 79 62 1.0 0.0 0.00 0.00 0.00 68 1009.3
20260905020006 79 65 1.0 0.0 0.00 0.00 0.00 67 1009.2
20260905014506 79 82 1.0 0.0 0.00 0.00 0.00 66 1009.1
20260905013009 78 77 1.0 0.0 0.00 0.00 0.00 67 1008.9
20260905011601 78 92 0.0 0.0 0.00 0.00 0.00 67 1009.0
20260905010004 79 92 0.0 0.0 0.00 0.00 0.00 67 1009.0
20260905004700 80 92 0.0 0.0 0.00 0.00 0.00 65 1009.1
20260905003003 81 92 0.0 0.0 0.00 0.00 0.00 64 1009.0
20260905001609 82 92 0.0 0.0 0.00 0.00 0.00 64 1008.8
20260905000006 82 140 0.0 0.0 0.00 0.00 0.00 64 1008.7
20260904233003 84 140 3.0 0.0 0.00 0.00 0.00 61 1008.3
20260904231603 85 111 3.0 0.0 0.00 0.00 0.00 62 1008.2
20260904230006 86 100 3.0 0.0 0.00 0.00 0.00 65 1007.9
20260904224605 84 123 3.0 0.0 0.00 0.00 0.00 68 1008.0
20260904223003 85 107 3.0 0.0 0.00 0.00 0.00 64 1008.4
20260904221505 86 142 3.0 0.0 0.00 0.00 0.00 66 1008.4
20260904220007 83 66 2.0 0.0 0.00 0.00 0.00 68 1008.5
20260904214613 82 98 1.0 0.0 0.00 0.00 0.00 71 1008.9
20260904211604 84 115 2.0 0.0 0.00 0.00 0.00 68 1009.0
20260904204507 84 65 3.0 0.0 0.00 0.00 0.00 66 1009.4
20260904203003 85 151 2.0 0.0 0.00 0.00 0.00 64 1009.5
20260904201504 84 121 3.0 0.0 0.00 0.00 0.00 64 1009.7
20260904200003 84 145 2.0 0.0 0.00 0.00 0.00 65 1009.6
20260904194612 84 157 3.0 0.0 0.00 0.00 0.00 66 1009.9
20260904191506 82 155 5.0 0.0 0.00 0.00 0.00 69 1010.3
20260904190002 83 174 4.0 0.0 0.00 0.00 0.00 64 1010.2
20260904184615 84 172 3.0 0.0 0.00 0.00 0.00 65 1010.3
20260904181525 84 175 5.0 0.0 0.00 0.00 0.00 65 1010.4
20260904180039 84 204 5.0 0.0 0.00 0.00 0.00 65 1010.5
20260904174521 84 215 4.0 0.0 0.00 0.00 0.00 64 1010.5
20260904173029 84 173 5.0 0.0 0.00 0.00 0.00 65 1010.9
20260904171539 84 167 5.0 0.0 0.00 0.00 0.00 65 1010.9
20260904170017 84 188 4.0 0.0 0.00 0.00 0.00 66 1011.0
20260904164517 84 140 3.0 0.0 0.00 0.00 0.00 67 1011.0
20260904163014 83 149 4.0 0.0 0.00 0.00 0.00 68 1011.0
20260904161513 82 184 6.0 0.0 0.00 0.00 0.00 70 1010.9
20260904160013 82 181 6.0 0.0 0.00 0.00 0.00 71 1010.7
20260904154522 81 102 4.0 0.0 0.00 0.00 0.00 71 1010.9
20260904153009 80 163 4.0 0.0 0.00 0.00 0.00 74 1010.7
20260904151510 81 192 5.0 0.0 0.00 0.00 0.00 72 1010.5
20260904150002 79 189 4.0 0.0 0.00 0.00 0.00 78 1010.7
20260904144501 78 179 6.0 0.0 0.00 0.00 0.00 80 1010.7
20260904143101 78 161 5.0 0.0 0.00 0.00 0.00 83 1010.6
20260904141559 77 153 5.0 0.0 0.00 0.00 0.00 84 1010.7
20260904140058 76 151 5.0 0.0 0.00 0.00 0.00 86 1010.6
20260904134602 75 181 6.0 0.0 0.00 0.00 0.00 88 1010.4
20260904133102 75 150 5.0 0.0 0.00 0.00 0.00 88 1010.2